Location: Wildlife_Club
(35.6000°N, 81.4330°W)
Time: 05:42:34
(UTC-04:00)

Vanguard 2 Rocket - Pass Details

Date: 25 June 2019
Orbit: 553 x 3327 km, 32.9° (Epoch: 24 August)

Event Time Altitude Azimuth Distance (km) Brightness Sun altitude
Rises 22:02:23 0° 244° (WSW) 3,353 10.1 -13.5°
Reaches altitude 10° 22:04:26 10° 241° (WSW) 2,629 9.5 -13.8°
Maximum altitude 22:10:41 62° 161° (SSE) 1,460 7.6 -14.7°
Drops below altitude 10° 22:21:54 10° 85° (E) 4,577 10.1 -16.3°
Sets 22:26:37 0° 83° (E) 6,035 10.8 -17.0°
